Lancaster, PA

5:33 PM EDT on April 25, 2017 (GMT -0400)
Lancaster

Weather History for KLNS - March, 2013

Change the Weather History Date:

Saturday, March 23, 2013

  Actual Average Record
Temperature  
Mean Temperature 36 °F -  
Max Temperature 46 °F 52 °F 79 °F (2012)
Min Temperature 28 °F 31 °F 18 °F (1986)
Degree Days  
Heating Degree Days 28    
Moisture  
Dew Point 19 °F    
Average Humidity 50    
Maximum Humidity 69    
Minimum Humidity 37    
Precipitation  
Precipitation 0.00 in - - ()
Sea Level Pressure  
Sea Level Pressure 29.96 in    
Wind  
Wind Speed 10 mph (WNW)    
Max Wind Speed 20 mph    
Max Gust Speed 30 mph    
Visibility 10 miles    
Events      
Averages and records for this station are not official NWS values.
T = Trace of Precipitation, MM = Missing Value Source: NWS Daily Summary

Daily Weather History Graph

Daily Weather History Graph

Search for Another Location

Airport or City:

Trip Planner

Search our weather history database for the weather conditions in past years. The results will help you decide how hot, cold, wet, or windy it might be!

Date:

Astronomy

Mar. 23, 2013 Rise Set
Actual Time 7:03 AM EDT 7:20 PM EDT
Civil Twilight 6:36 AM EDT 7:47 PM EDT
Nautical Twilight 6:04 AM EDT 8:19 PM EDT
Astronomical Twilight 5:32 AM EDT 8:52 PM EDT
Moon 3:45 PM EDT (3/23) 4:38 AM EDT (3/23)
Length of Visible Light 13h 11m
Length of Day
12h 17m
Waxing Gibbous, 85% of the Moon is Illuminated
Mar 23
Waxing Gibbous
Mar 27
Full
Apr 3
Last Quarter
Apr 10
New
Apr 18
First Quarter

Hourly Weather History & Observations

Time (EDT) Temp. Windchill Dew Point Humidity Pressure Visibility Wind Dir Wind Speed Gust Speed Precip Events Conditions
12:53 AM 30.9 °F 22.2 °F 18.0 °F 59% 29.98 in 10.0 mi WNW 10.4 mph - N/A   Partly Cloudy
1:53 AM 28.9 °F 23.9 °F 18.0 °F 64% 29.98 in 10.0 mi SW 4.6 mph - N/A   Mostly Cloudy
2:53 AM 30.0 °F 25.2 °F 19.0 °F 64% 29.96 in 10.0 mi WSW 4.6 mph - N/A   Overcast
3:53 AM 28.0 °F 20.8 °F 19.0 °F 69% 29.95 in 10.0 mi WNW 6.9 mph - N/A   Partly Cloudy
4:53 AM 30.0 °F 22.4 °F 19.0 °F 64% 29.96 in 10.0 mi NW 8.1 mph - N/A   Partly Cloudy
5:53 AM 30.9 °F 21.7 °F 19.0 °F 61% 29.97 in 10.0 mi NW 11.5 mph - N/A   Overcast
6:53 AM 30.0 °F 24.1 °F 18.0 °F 61% 29.96 in 10.0 mi WNW 5.8 mph - N/A   Scattered Clouds
7:53 AM 32.0 °F 24.8 °F 19.0 °F 59% 29.98 in 9.0 mi NW 8.1 mph - N/A   Clear
8:53 AM 35.1 °F 27.4 °F 19.0 °F 52% 29.98 in 10.0 mi NW 10.4 mph - N/A   Clear
9:53 AM 37.0 °F 27.7 °F 18.0 °F 46% 29.98 in 10.0 mi NW 16.1 mph - N/A   Clear
10:53 AM 39.9 °F 32.5 °F 19.0 °F 43% 29.98 in 10.0 mi WNW 12.7 mph 25.3 mph N/A   Partly Cloudy
11:53 AM 37.9 °F 30.5 °F 17.1 °F 43% 29.97 in 10.0 mi WNW 11.5 mph 21.9 mph N/A   Mostly Cloudy
12:53 PM 41.0 °F 33.1 °F 19.0 °F 41% 29.95 in 10.0 mi West 15.0 mph 24.2 mph N/A   Mostly Cloudy
1:53 PM 44.1 °F 37.7 °F 19.9 °F 38% 29.93 in 10.0 mi WNW 12.7 mph 25.3 mph N/A   Partly Cloudy
2:53 PM 45.0 °F 38.2 °F 19.9 °F 37% 29.92 in 10.0 mi WNW 15.0 mph 26.5 mph N/A   Scattered Clouds
3:53 PM 44.1 °F 37.1 °F 19.0 °F 37% 29.92 in 10.0 mi NW 15.0 mph 29.9 mph N/A   Scattered Clouds
4:53 PM 44.1 °F 35.9 °F 19.0 °F 37% 29.92 in 10.0 mi NW 19.6 mph 27.6 mph N/A   Mostly Cloudy
5:53 PM 43.0 °F 35.1 °F 18.0 °F 37% 29.93 in 10.0 mi NW 17.3 mph 23.0 mph N/A   Clear
6:53 PM 41.0 °F 33.9 °F 18.0 °F 40% 29.94 in 10.0 mi NW 12.7 mph 21.9 mph N/A   Clear
7:53 PM 37.9 °F 30.9 °F 18.0 °F 45% 29.96 in 10.0 mi NW 10.4 mph - N/A   Clear
8:53 PM 37.0 °F 28.9 °F 18.0 °F 46% 29.97 in 10.0 mi WNW 12.7 mph - N/A   Clear
9:53 PM 33.1 °F 25.5 °F 19.0 °F 56% 29.99 in 10.0 mi WNW 9.2 mph - N/A   Clear
10:53 PM 34.0 °F 29.8 °F 18.0 °F 52% 29.99 in 10.0 mi West 4.6 mph - N/A   Clear
11:53 PM 30.9 °F 26.2 °F 18.0 °F 59% 29.99 in 10.0 mi WSW 4.6 mph - N/A   Clear